{"data":{"norad_id":53852,"epoch":"2026-09-20T05:51:57.026592Z","epoch_age_seconds":106101,"freshness":"FRESH","line1":"1 53852U 22114AL  26263.24441003  .00000260  00000+0  20158-4 0  9997","line2":"2 53852  53.1601 125.2141 0001372  92.9530 267.1629 15.31701890222552","mean_motion":15.3170189,"eccentricity":0.0001372,"inclination_deg":53.1601,"raan_deg":125.2141,"arg_perigee_deg":92.953,"mean_anomaly_deg":267.1629,"bstar":2.0158e-5,"rev_number":22255,"period_min":94.013071956189,"perigee_km":469.79469608903,"apogee_km":471.67402639055,"semimajor_km":6848.8713612398,"source":"CELESTRAK","updated_at":"2026-09-21T09:00:33.023426Z"}}